EW9290 Weather Reports


Display with metric or nautical units.
time (UTC)temp
F
wind
direction
speed
MPH
gust
MPH
rain 1hr
in
rain 24hr
in
rain mn
in
humidity
%
barometer
mb
20260905024454 69 93 0.0 0.0 0.00 0.09 0.09 99 1012.5
20260905023950 69 93 0.0 0.0 0.00 0.09 0.09 99 1012.6
20260905023445 69 93 0.0 0.0 0.00 0.09 0.09 99 1012.7
20260905022944 69 93 0.0 0.0 0.00 0.09 0.09 99 1012.7
20260905022439 69 93 0.0 0.0 0.00 0.09 0.09 99 1012.6
20260905021935 69 93 0.0 0.0 0.00 0.09 0.09 99 1012.3
20260905021435 69 93 0.0 0.0 0.00 0.09 0.09 99 1012.6
20260905020930 69 93 0.0 0.0 0.00 0.09 0.09 99 1012.4
20260905020429 69 93 0.0 0.0 0.00 0.09 0.09 99 1012.4
20260905015924 70 93 0.0 0.0 0.00 0.09 0.09 99 1012.4
20260905015422 70 92 0.0 0.0 0.00 0.09 0.09 99 1012.7
20260905014921 70 92 0.0 0.0 0.00 0.09 0.09 99 1012.5
20260905014417 70 93 0.0 0.0 0.00 0.09 0.09 99 1012.6
20260905013912 70 92 0.0 0.0 0.00 0.09 0.09 99 1012.6
20260905013409 70 92 0.0 0.0 0.00 0.09 0.09 99 1012.7
20260905012904 70 92 0.0 0.0 0.00 0.09 0.09 99 1012.7
20260905012359 70 92 0.0 0.0 0.00 0.09 0.09 99 1012.7
20260905011856 70 92 0.0 0.0 0.00 0.09 0.09 99 1012.6
20260905011351 70 92 0.0 0.0 0.00 0.09 0.09 99 1012.7
20260905010846 71 92 0.0 0.0 0.00 0.09 0.09 99 1012.6
20260905010341 70 92 0.0 0.0 0.00 0.09 0.09 99 1012.5
20260905005837 71 92 0.0 0.0 0.00 0.09 0.09 99 1012.5
20260905005333 71 92 0.0 0.0 0.00 0.09 0.09 99 1012.5
20260905004828 71 93 0.0 0.0 0.00 0.09 0.09 99 1012.6
20260905004323 71 92 0.0 0.0 0.00 0.09 0.09 99 1012.6
20260905003818 71 92 0.0 0.0 0.00 0.09 0.09 99 1012.4
20260905003314 72 92 0.0 0.0 0.00 0.09 0.09 99 1012.4
20260905002815 72 92 0.0 0.0 0.00 0.09 0.09 99 1012.4
20260905002309 72 92 0.0 0.0 0.00 0.09 0.09 99 1012.6
20260905001804 72 92 0.0 0.0 0.00 0.09 0.09 99 1012.6
20260905001304 73 92 0.0 0.0 0.00 0.09 0.09 99 1012.6
20260905000759 73 92 0.0 0.0 0.00 0.09 0.09 98 1012.5
20260905000255 73 92 0.0 0.0 0.00 0.09 0.09 98 1012.7
20260904235749 73 92 0.0 0.0 0.00 0.09 0.09 97 1012.3
20260904235244 74 92 0.0 0.0 0.00 0.09 0.09 96 1012.5
20260904234739 74 92 0.0 0.0 0.00 0.09 0.09 96 1012.4
20260904234234 75 92 0.0 0.0 0.00 0.09 0.09 95 1012.5
20260904233730 75 92 0.0 0.0 0.00 0.09 0.09 94 1012.6
20260904233226 75 92 0.0 0.0 0.00 0.09 0.09 93 1012.6
20260904232722 75 93 0.0 0.0 0.00 0.09 0.09 92 1012.8
20260904232218 75 93 0.0 0.0 0.00 0.09 0.09 91 1012.7
20260904231714 75 92 0.0 0.0 0.00 0.09 0.09 92 1012.6
20260904231209 75 93 0.0 0.0 0.00 0.09 0.09 91 1012.4
20260904230709 75 88 0.0 0.0 0.00 0.09 0.09 93 1012.5
20260904230203 75 88 0.0 0.0 0.00 0.09 0.09 94 1012.3
20260904225702 76 50 0.0 0.0 0.00 0.09 0.09 92 1012.7
20260904225156 75 37 0.0 0.0 0.00 0.09 0.09 92 1012.5
20260904224650 76 37 0.0 0.0 0.00 0.09 0.09 93 1012.5
20260904224145 76 37 0.0 0.0 0.00 0.09 0.09 91 1012.5
20260904223644 76 37 0.0 0.0 0.00 0.09 0.09 90 1012.7
20260904223140 75 37 0.0 0.0 0.00 0.09 0.09 90 1012.3
20260904222636 76 37 0.0 0.0 0.00 0.09 0.09 92 1012.4
20260904222131 76 37 0.0 0.0 0.00 0.09 0.09 90 1012.5
20260904221630 76 37 0.0 0.0 0.00 0.09 0.09 91 1012.3
20260904221126 76 37 0.0 0.0 0.00 0.09 0.09 90 1012.3
20260904220620 76 37 0.0 0.0 0.00 0.09 0.09 90 1012.1
20260904220115 77 73 0.0 0.0 0.00 0.09 0.09 89 1012.3
20260904215610 77 75 0.0 0.0 0.00 0.09 0.09 85 1012.0
20260904215106 77 75 0.0 0.0 0.00 0.09 0.09 86 1011.7
20260904214601 77 75 0.0 0.0 0.00 0.09 0.09 87 1011.7
20260904214056 77 75 0.0 0.0 0.00 0.09 0.09 88 1011.6
20260904213554 76 75 0.0 0.0 0.00 0.09 0.09 89 1011.7
20260904213051 76 75 0.0 0.0 0.00 0.09 0.09 89 1011.4
20260904212550 76 74 0.0 0.0 0.00 0.09 0.09 88 1011.4
20260904212046 76 350 0.0 0.0 0.00 0.09 0.09 88 1011.6
20260904211545 76 191 0.0 0.0 0.00 0.09 0.09 87 1011.5
20260904211041 76 191 0.0 0.0 0.00 0.09 0.09 88 1011.4
20260904210540 76 191 0.0 0.0 0.00 0.09 0.09 88 1011.3
20260904210036 77 191 0.0 0.0 0.00 0.09 0.09 87 1011.2
20260904205531 77 192 0.0 0.0 0.00 0.09 0.09 85 1011.4
20260904205028 76 191 0.0 0.0 0.00 0.09 0.09 85 1010.8
20260904204524 76 191 0.0 0.0 0.00 0.09 0.09 86 1010.8
20260904204019 76 172 1.0 2.0 0.00 0.09 0.09 86 1010.5
20260904203515 77 143 0.0 0.0 0.00 0.09 0.09 85 1010.8
20260904203012 77 184 0.0 0.0 0.00 0.09 0.09 86 1010.7
20260904202507 77 183 0.0 0.0 0.00 0.09 0.09 86 1011.2
20260904202003 77 183 0.0 0.0 0.00 0.09 0.09 84 1011.3
20260904201458 77 177 1.0 1.0 0.00 0.09 0.09 84 1011.2
20260904200954 77 176 0.0 1.0 0.00 0.09 0.09 85 1011.5
20260904200451 78 235 1.0 1.0 0.00 0.09 0.09 82 1011.4
20260904195946 77 266 1.0 1.0 0.00 0.09 0.09 82 1011.9
20260904195445 77 231 3.0 3.0 0.00 0.09 0.09 84 1012.1
20260904194944 77 229 2.0 2.0 0.00 0.09 0.09 84 1012.3
20260904194439 77 200 1.0 2.0 0.00 0.09 0.09 83 1012.2
20260904193934 78 270 2.0 3.0 0.00 0.09 0.09 84 1012.3
20260904193429 77 217 2.0 2.0 0.00 0.09 0.09 85 1012.5
20260904192925 76 220 1.0 1.0 0.00 0.09 0.09 88 1012.4
20260904192420 75 235 2.0 2.0 0.00 0.09 0.09 89 1012.5
20260904191916 74 205 3.0 5.0 0.00 0.09 0.09 89 1012.8
20260904191412 74 214 2.0 2.0 0.00 0.09 0.09 91 1012.6
20260904190909 74 200 1.0 1.0 0.00 0.09 0.09 93 1012.4
20260904190404 74 203 1.0 1.0 0.00 0.09 0.09 94 1012.9
20260904185900 73 203 1.0 1.0 0.00 0.09 0.09 95 1013.2
20260904185356 72 195 1.0 2.0 0.00 0.09 0.09 96 1012.9
20260904184855 72 185 1.0 1.0 0.00 0.09 0.09 97 1012.4
20260904184350 72 178 1.0 2.0 0.00 0.09 0.09 96 1012.5
20260904183846 71 154 3.0 3.0 0.00 0.09 0.09 96 1013.0
20260904183341 71 34 1.0 1.0 0.00 0.09 0.09 98 1013.4
20260904182836 71 171 2.0 3.0 0.00 0.09 0.09 98 1013.3
20260904182331 71 256 0.0 0.0 0.00 0.09 0.09 99 1013.3
20260904181827 71 221 0.0 0.0 0.00 0.09 0.09 99 1012.8
20260904181326 71 203 3.0 3.0 0.00 0.09 0.09 99 1013.3
20260904180822 71 201 1.0 1.0 0.00 0.09 0.09 99 1013.9
20260904180317 71 200 0.0 0.0 0.00 0.09 0.09 99 1014.3
20260904175816 71 136 0.0 0.0 0.00 0.09 0.09 99 1014.6
20260904175314 71 136 0.0 0.0 0.00 0.09 0.09 99 1015.1
20260904174809 71 31 0.0 1.0 0.00 0.09 0.09 99 1015.4
20260904174305 71 338 1.0 1.0 0.00 0.09 0.09 99 1015.3
20260904173801 71 22 1.0 1.0 0.00 0.09 0.09 99 1015.1
20260904173256 71 3 1.0 1.0 0.00 0.09 0.09 99 1015.2
20260904172752 71 346 1.0 1.0 0.00 0.09 0.09 99 1015.2
20260904172251 71 318 1.0 1.0 0.00 0.09 0.09 99 1015.0
20260904171746 71 29 3.0 6.0 0.00 0.09 0.09 99 1015.1
20260904171241 72 322 4.0 5.0 0.00 0.09 0.09 99 1015.2
20260904170738 71 39 0.0 1.0 0.00 0.09 0.09 99 1015.1
20260904170233 71 33 1.0 2.0 0.00 0.09 0.09 99 1015.0
20260904165733 71 6 2.0 2.0 0.00 0.09 0.09 99 1015.0
20260904165227 71 7 5.0 7.0 0.00 0.09 0.09 99 1014.8
20260904164727 71 12 5.0 6.0 0.00 0.09 0.09 99 1014.9
20260904164221 70 19 5.0 6.0 0.00 0.09 0.09 99 1015.0
20260904163718 70 30 5.0 9.0 0.00 0.09 0.09 99 1015.3
20260904163213 70 19 1.0 2.0 0.00 0.09 0.09 99 1015.0
20260904162712 70 17 4.0 6.0 0.00 0.09 0.09 99 1015.0
20260904162207 70 14 5.0 8.0 0.00 0.09 0.09 99 1015.4
20260904161703 70 11 3.0 6.0 0.07 0.09 0.09 99 1015.5
20260904161157 69 341 0.0 0.0 0.07 0.09 0.09 99 1015.6
20260904160653 69 10 7.0 10.0 0.07 0.09 0.09 99 1015.2
20260904160149 70 349 3.0 3.0 0.00 0.08 0.08 99 1015.2
20260904155644 70 27 3.0 3.0 0.00 0.08 0.08 99 1015.2
20260904155143 70 9 2.0 3.0 0.00 0.08 0.08 99 1015.3
20260904154641 70 342 6.0 8.0 0.00 0.08 0.08 99 1015.4
20260904154136 71 41 1.0 1.0 0.00 0.08 0.08 99 1015.3
20260904153631 70 24 1.0 1.0 0.00 0.08 0.08 99 1015.1
20260904153127 70 17 2.0 2.0 0.00 0.08 0.08 99 1014.6
20260904152623 70 58 0.0 0.0 0.00 0.08 0.08 99 1014.6
20260904152118 70 78 0.0 0.0 0.00 0.08 0.08 99 1014.0
20260904151613 70 148 0.0 0.0 0.00 0.08 0.08 99 1013.7
20260904151112 70 171 1.0 2.0 0.00 0.08 0.08 99 1013.5
20260904150608 70 171 2.0 2.0 0.00 0.08 0.08 99 1013.6
20260904145602 69 92 0.0 0.0 0.00 0.08 0.08 99 1013.9
20260904145056 69 92 0.0 0.0 0.00 0.08 0.08 99 1014.2
20260904144552 69 41 0.0 0.0 0.00 0.08 0.08 99 1014.7
20260904144048 68 39 1.0 1.0 0.00 0.08 0.08 99 1014.4
20260904143544 68 74 0.0 0.0 0.00 0.08 0.08 99 1014.3
20260904143040 68 136 0.0 0.0 0.00 0.08 0.08 99 1014.2
20260904142536 68 138 0.0 0.0 0.00 0.08 0.08 99 1014.3
20260904142032 68 138 0.0 0.0 0.05 0.08 0.08 99 1014.8
20260904141532 68 138 0.0 0.0 0.05 0.08 0.08 99 1014.4
20260904141028 68 143 0.0 0.0 0.07 0.07 0.07 99 1014.6
20260904140527 68 143 0.0 0.0 0.12 0.07 0.07 99 1015.1
20260904140022 68 143 0.0 0.0 0.12 0.06 0.06 99 1015.1
20260904135521 68 141 0.0 0.0 0.07 0.05 0.05 99 1014.4
20260904135018 68 140 0.0 0.0 0.05 0.04 0.04 99 1014.2
20260904134513 68 142 0.0 0.0 0.12 0.04 0.04 99 1014.4
20260904134007 68 150 0.0 0.0 0.14 0.03 0.03 99 1014.9
20260904133501 68 151 0.0 0.0 0.12 0.02 0.02 99 1015.0
20260904132957 68 174 0.0 0.0 0.05 0.01 0.01 99 1014.9
20260904132452 68 175 0.0 0.0 0.00 0.00 0.00 99 1015.0
20260904131952 68 175 0.0 0.0 0.00 0.00 0.00 99 1014.7
20260904131447 68 176 0.0 0.0 0.00 0.00 0.00 99 1014.2
20260904130943 68 175 0.0 0.0 0.00 0.00 0.00 99 1014.4
20260904130442 68 175 0.0 0.0 0.00 0.00 0.00 99 1014.7
20260904125937 68 175 0.0 0.0 0.00 0.00 0.00 99 1014.7
20260904125433 68 175 0.0 0.0 0.00 0.00 0.00 99 1014.8
20260904124932 68 175 0.0 0.0 0.00 0.00 0.00 99 1014.3
20260904124428 68 177 0.0 0.0 0.00 0.00 0.00 99 1014.1
20260904123919 67 184 0.0 0.0 0.00 0.00 0.00 99 1014.1
20260904123419 67 203 0.0 0.0 0.00 0.00 0.00 99 1014.2
20260904122914 67 204 0.0 0.0 0.00 0.00 0.00 99 1014.7
20260904122413 67 196 0.0 0.0 0.00 0.00 0.00 99 1014.3
20260904121908 67 180 1.0 1.0 0.00 0.00 0.00 99 1014.3
20260904121405 67 163 0.0 0.0 0.00 0.00 0.00 99 1013.7
20260904120901 67 163 0.0 0.0 0.00 0.00 0.00 99 1013.8
20260904120357 67 163 0.0 0.0 0.00 0.00 0.00 99 1013.8
20260904115851 67 163 0.0 0.0 0.00 0.00 0.00 99 1014.0
20260904115346 67 163 0.0 0.0 0.00 0.00 0.00 99 1013.8
20260904114841 67 163 0.0 0.0 0.00 0.00 0.00 99 1013.9
20260904114336 67 159 0.0 0.0 0.00 0.00 0.00 99 1013.9
20260904113831 67 159 0.0 0.0 0.00 0.00 0.00 99 1014.0
20260904113330 67 159 0.0 0.0 0.00 0.00 0.00 99 1014.0
20260904112825 66 159 0.0 0.0 0.00 0.00 0.00 99 1013.6
20260904112321 66 158 0.0 0.0 0.00 0.00 0.00 99 1013.6
20260904111816 66 159 0.0 0.0 0.00 0.00 0.00 99 1013.7
20260904111312 66 159 0.0 0.0 0.00 0.00 0.00 99 1013.6
20260904110808 66 159 0.0 0.0 0.00 0.00 0.00 99 1013.6
20260904110306 66 159 0.0 0.0 0.00 0.00 0.00 99 1013.5
20260904105802 66 159 0.0 0.0 0.00 0.00 0.00 99 1013.5
20260904105256 66 159 0.0 0.0 0.00 0.00 0.00 99 1013.4
20260904104751 66 159 0.0 0.0 0.00 0.00 0.00 99 1013.5
20260904104247 66 159 0.0 0.0 0.00 0.00 0.00 99 1013.3
20260904103744 66 159 0.0 0.0 0.00 0.00 0.00 99 1013.2
20260904103244 66 159 0.0 0.0 0.00 0.00 0.00 99 1013.2
20260904102739 66 160 0.0 0.0 0.00 0.00 0.00 99 1013.1
20260904102235 66 159 0.0 0.0 0.00 0.00 0.00 99 1013.1
20260904101731 66 160 0.0 0.0 0.00 0.00 0.00 99 1013.0
20260904101227 66 158 0.0 0.0 0.00 0.00 0.00 99 1013.0
20260904100722 66 160 0.0 0.0 0.00 0.00 0.00 99 1013.0
20260904100218 66 157 0.0 0.0 0.00 0.00 0.00 99 1013.0
20260904095717 66 150 0.0 0.0 0.00 0.00 0.00 99 1013.3
20260904095213 66 148 0.0 0.0 0.00 0.00 0.00 99 1013.3
20260904094708 66 148 0.0 0.0 0.00 0.00 0.00 99 1013.6
20260904094202 66 148 0.0 0.0 0.00 0.00 0.00 99 1013.5
20260904093659 66 148 0.0 0.0 0.00 0.00 0.00 99 1013.6
20260904093158 66 148 0.0 0.0 0.00 0.00 0.00 99 1013.4
20260904092655 66 148 0.0 0.0 0.00 0.00 0.00 99 1013.5
20260904092150 66 145 0.0 0.0 0.00 0.00 0.00 99 1013.4
20260904091646 66 145 0.0 0.0 0.00 0.00 0.00 99 1013.6
20260904091146 66 145 0.0 0.0 0.00 0.00 0.00 99 1013.4
20260904090642 66 145 0.0 0.0 0.00 0.00 0.00 99 1013.2
20260904090137 66 145 0.0 0.0 0.00 0.00 0.00 99 1013.2
20260904085632 66 145 0.0 0.0 0.00 0.00 0.00 99 1013.2
20260904085132 66 145 0.0 0.0 0.00 0.00 0.00 99 1013.4
20260904084627 66 144 0.0 0.0 0.00 0.00 0.00 99 1013.3
20260904084124 66 145 0.0 0.0 0.00 0.00 0.00 99 1013.2
20260904083620 66 145 0.0 0.0 0.00 0.00 0.00 99 1013.2
20260904083115 66 145 0.0 0.0 0.00 0.00 0.00 99 1012.9
20260904082610 66 145 0.0 0.0 0.00 0.00 0.00 99 1013.0
20260904082106 66 145 0.0 0.0 0.00 0.00 0.00 99 1012.8
20260904081601 66 144 0.0 0.0 0.00 0.00 0.00 99 1013.1
20260904081056 66 144 0.0 0.0 0.00 0.00 0.00 99 1013.1
20260904080551 66 144 0.0 0.0 0.00 0.00 0.00 99 1013.1
20260904080048 66 144 0.0 0.0 0.00 0.00 0.00 99 1013.3
20260904075543 66 145 0.0 0.0 0.00 0.00 0.00 99 1013.1
20260904075038 66 144 0.0 0.0 0.00 0.00 0.00 99 1013.3
20260904074537 67 144 0.0 0.0 0.00 0.00 0.00 99 1013.1
20260904074032 67 145 0.0 0.0 0.00 0.00 0.00 99 1013.5
20260904073527 67 144 0.0 0.0 0.00 0.00 0.00 99 1013.4
20260904073024 67 140 0.0 0.0 0.00 0.00 0.00 99 1013.4
20260904072519 67 140 0.0 0.0 0.00 0.00 0.00 99 1013.4
20260904072014 67 140 0.0 0.0 0.00 0.00 0.00 99 1013.4
20260904071509 67 140 0.0 0.0 0.00 0.00 0.00 99 1013.5
20260904071004 67 140 0.0 0.0 0.00 0.00 0.00 99 1013.4
20260904070503 67 140 0.0 0.0 0.00 0.00 0.00 99 1013.4
20260904065957 67 131 0.0 0.0 0.00 0.00 0.00 99 1013.7
20260904065453 67 131 0.0 0.0 0.00 0.00 0.00 99 1013.5
20260904064949 67 131 0.0 0.0 0.00 0.00 0.00 99 1013.3
20260904064444 67 130 0.0 0.0 0.00 0.00 0.00 99 1013.6
20260904063939 67 131 0.0 0.0 0.00 0.00 0.00 99 1013.5
20260904063436 67 130 0.0 0.0 0.00 0.00 0.00 99 1013.8
20260904062931 67 131 0.0 0.0 0.00 0.00 0.00 99 1013.8
20260904062427 67 123 0.0 0.0 0.00 0.00 0.00 99 1013.4
20260904061922 67 101 0.0 0.0 0.00 0.00 0.00 99 1013.6
20260904061418 67 101 0.0 0.0 0.00 0.00 0.00 99 1013.5
20260904060914 66 78 0.0 0.0 0.00 0.00 0.00 99 1013.5
20260904060410 66 78 0.0 0.0 0.00 0.00 0.00 99 1013.5
20260904055905 67 77 0.0 0.0 0.00 0.00 0.00 99 1013.5
20260904055401 67 78 0.0 0.0 0.00 0.00 0.00 99 1013.5
20260904054856 67 78 0.0 0.0 0.00 0.00 0.00 99 1013.5
20260904054352 67 78 0.0 0.0 0.00 0.00 0.00 99 1013.5
20260904053847 66 54 0.0 0.0 0.00 0.00 0.00 99 1013.6
20260904053346 66 50 0.0 0.0 0.00 0.00 0.00 99 1013.8
20260904052843 66 69 0.0 0.0 0.00 0.00 0.00 99 1013.6
20260904052339 66 69 0.0 0.0 0.00 0.00 0.00 99 1013.3
20260904051835 67 74 0.0 0.0 0.00 0.00 0.00 99 1013.4
20260904051331 66 161 0.0 0.0 0.00 0.00 0.00 99 1013.3
20260904050825 67 160 0.0 0.0 0.00 0.00 0.00 99 1013.1
20260904050322 67 163 0.0 0.0 0.00 0.00 0.00 99 1013.4
20260904045822 67 163 0.0 0.0 0.00 0.00 0.00 99 1013.2
20260904045317 67 173 0.0 0.0 0.00 0.00 0.00 99 1013.5
20260904044811 67 169 0.0 0.0 0.00 0.00 0.00 99 1013.4
20260904044308 67 209 0.0 0.0 0.00 0.00 0.00 99 1013.4
20260904043804 67 182 1.0 2.0 0.00 0.00 0.00 99 1013.2
20260904043300 67 189 1.0 1.0 0.00 0.00 0.00 99 1013.3
20260904042755 67 185 0.0 0.0 0.00 0.00 0.00 99 1013.4
20260904042251 67 179 1.0 1.0 0.00 0.00 0.00 99 1013.1
20260904041751 67 179 3.0 3.0 0.00 0.00 0.00 99 1013.3
20260904041247 67 166 1.0 1.0 0.00 0.00 0.00 99 1013.5
20260904040743 67 186 2.0 2.0 0.00 0.00 0.00 99 1013.5
20260904040238 67 166 1.0 2.0 0.00 0.00 0.00 99 1013.3
20260904035734 67 151 0.0 1.0 0.00 0.85 0.85 99 1013.4
20260904035230 67 160 1.0 3.0 0.00 0.85 0.85 99 1013.6
20260904034728 67 162 2.0 2.0 0.00 0.85 0.85 99 1013.7
20260904034224 67 98 1.0 2.0 0.00 0.85 0.85 99 1013.7
20260904033720 67 170 3.0 5.0 0.00 0.85 0.85 99 1013.4
20260904033217 67 193 2.0 2.0 0.00 0.85 0.85 99 1013.4
20260904032712 67 150 0.0 0.0 0.00 0.85 0.85 99 1013.8
20260904032211 67 131 0.0 0.0 0.00 0.85 0.85 99 1013.4
20260904031711 67 141 0.0 0.0 0.00 0.85 0.85 99 1013.1
20260904031207 67 171 2.0 3.0 0.00 0.85 0.85 99 1013.1
20260904030702 67 173 0.0 0.0 0.00 0.85 0.85 99 1012.8
20260904030157 67 154 3.0 5.0 0.00 0.85 0.85 99 1013.2
20260904025654 67 177 2.0 2.0 0.00 0.85 0.85 99 1013.1
20260904025149 67 195 2.0 2.0 0.00 0.85 0.85 99 1013.1
20260904024644 67 179 1.0 1.0 0.00 0.85 0.85 99 1013.2